Location: ???????
(54.9567°N, 38.2836°E)
Time: 12:56:41
(UTC+00:00)

Cosmos 1470 Rocket - Pass Details

Date: 14 April 2024
Orbit: 601 x 629 km, 82.5° (Epoch: 24 May)

Event Time Altitude Azimuth Distance (km) Brightness Sun altitude
Rises 01:15:24 0° 348° (NNW) 2,889 7.3 -9.9°
Reaches altitude 10° 01:17:38 10° 350° (N) 1,984 6.5 -9.7°
Maximum altitude 01:22:02 80° 78° (ENE) 634 3.7 -9.1°
Drops below altitude 10° 01:26:27 10° 165° (SSE) 1,986 6.0 -8.6°
Sets 01:28:40 0° 167° (SSE) 2,892 6.8 -8.3°
